LEMUR-2-MIMI1307 (52769 NORAD) Tracking and Keplerian Element Data

This shows tracking and keplerian element data for the satellite.

Feedback or suggestion? Click here.




ElementValue
Catalog52769
NameLEMUR-2-MIMI1307
Epoch Orbit712
Epoch Day192.8232075
Epoch Year2022
RAAN307.282
Inclination97.5291
Eccentricity0.0015708
Argument of Perigee74.9181
Mean Anonmoly285.3787
Mean Motion15.13715364
Decay Rate3.078E-05
L11 52769U 22057AP 22192.82320750 .00003078 00000+0 17409-3 0 9999
L22 52769 97.5291 307.2820 0015708 74.9181 285.3787 15.13715364 7123

Live tracking and technical data element details for LEMUR-2-MIMI1307 (NORAD 52769). LEMUR-2-MIMI1307 can be tracked NOW for your location showing map with azimuth and elevation plus other details from your city location.

Track the satellite on the map from your city or location and see movement details for azimuth, elevation, latitude, longitude, range, height, and movement on the map or in text.







IsCatalogInMostPopularTable: catalog: 52769, numindb: 3
Update: records affected: 1



GetName: 52769 LEMUR-2-MIMI1307

Hit Count: updated at: Sun, 14 Aug 2022 00:18:06 GMT